Time,TemperatureF,DewpointF,PressureIn,WindDirection,WindDirectionDegrees,WindSpeedMPH,WindSpeedGustMPH,Humidity,HourlyPrecipIn,Conditions,Clouds,dailyrainin,SoftwareType,DateUTC
2013-01-05 00:04:00,32.8,24.4,29.67,North,0,1.6,3.4,71,0.00,,,0.00,WUHU216HW,2013-01-05 05:04:00,
2013-01-05 00:09:00,32.8,24.4,29.66,NW,315,3.1,3.4,71,0.00,,,0.00,WUHU216HW,2013-01-05 05:09:00,
2013-01-05 00:14:00,32.8,24.4,29.67,North,0,3.1,3.1,71,0.00,,,0.00,WUHU216HW,2013-01-05 05:14:00,
2013-01-05 00:19:00,32.8,24.4,29.67,SW,225,0.4,3.1,71,0.00,,,0.00,WUHU216HW,2013-01-05 05:19:00,
2013-01-05 00:24:00,32.4,24.4,29.66,South,180,2.2,4.3,72,0.00,,,0.00,WUHU216HW,2013-01-05 05:24:00,
2013-01-05 00:29:00,32.4,24.0,29.66,NW,315,0.7,4.3,71,0.00,,,0.00,WUHU216HW,2013-01-05 05:29:00,
2013-01-05 00:34:00,32.4,23.8,29.66,North,0,2.5,5.4,70,0.00,,,0.00,WUHU216HW,2013-01-05 05:34:00,
2013-01-05 00:39:00,32.8,23.7,29.67,North,0,4.9,5.4,69,0.00,,,0.00,WUHU216HW,2013-01-05 05:39:00,
2013-01-05 00:44:00,32.8,23.7,29.67,North,0,3.1,4.9,69,0.00,,,0.00,WUHU216HW,2013-01-05 05:44:00,
2013-01-05 00:49:00,32.8,23.7,29.67,NW,315,3.6,4.5,69,0.00,,,0.00,WUHU216HW,2013-01-05 05:49:00,
2013-01-05 00:54:00,32.8,23.7,29.67,ENE,68,1.8,3.6,69,0.00,,,0.00,WUHU216HW,2013-01-05 05:54:00,
2013-01-05 00:59:00,32.8,23.7,29.67,NNW,338,3.1,6.5,69,0.00,,,0.00,WUHU216HW,2013-01-05 05:59:00,
2013-01-05 01:04:00,32.6,23.5,29.67,NNE,23,9.6,9.6,69,0.00,,,0.00,WUHU216HW,2013-01-05 06:04:00,
2013-01-05 01:09:00,32.8,23.7,29.66,SW,225,1.1,9.6,69,0.00,,,0.00,WUHU216HW,2013-01-05 06:09:00,
2013-01-05 01:14:00,32.4,23.4,29.66,ENE,68,1.1,3.6,69,0.00,,,0.00,WUHU216HW,2013-01-05 06:14:00,
2013-01-05 01:19:00,32.0,23.4,29.66,WSW,248,1.1,3.6,70,0.00,,,0.00,WUHU216HW,2013-01-05 06:19:00,
2013-01-05 01:24:00,32.0,23.4,29.67,NNE,23,1.1,7.4,70,0.00,,,0.00,WUHU216HW,2013-01-05 06:24:00,
2013-01-05 01:29:00,32.0,23.8,29.66,SE,135,0.4,7.4,71,0.00,,,0.00,WUHU216HW,2013-01-05 06:29:00,
2013-01-05 01:34:00,31.7,23.4,29.67,NNE,23,0.9,4.0,71,0.00,,,0.00,WUHU216HW,2013-01-05 06:34:00,
2013-01-05 01:39:00,31.7,23.4,29.67,NNW,338,1.1,4.0,71,0.00,,,0.00,WUHU216HW,2013-01-05 06:39:00,
2013-01-05 01:44:00,31.3,23.7,29.67,WSW,248,1.1,1.6,73,0.00,,,0.00,WUHU216HW,2013-01-05 06:44:00,
2013-01-05 01:49:00,31.5,23.2,29.67,North,0,1.8,3.1,71,0.00,,,0.00,WUHU216HW,2013-01-05 06:49:00,
2013-01-05 01:55:00,32.0,23.4,29.68,NE,45,4.7,4.7,70,0.00,,,0.00,WUHU216HW,2013-01-05 06:55:00,
2013-01-05 02:00:00,32.4,23.8,29.68,NE,45,1.1,4.7,70,0.00,,,0.00,WUHU216HW,2013-01-05 07:00:00,
2013-01-05 02:05:00,32.2,23.6,29.68,NNE,23,2.7,4.5,70,0.00,,,0.00,WUHU216HW,2013-01-05 07:05:00,
2013-01-05 02:10:00,32.4,23.8,29.68,North,0,4.7,7.6,70,0.00,,,0.00,WUHU216HW,2013-01-05 07:10:00,
2013-01-05 02:15:00,32.4,23.8,29.69,NNW,338,1.8,7.6,70,0.00,,,0.00,WUHU216HW,2013-01-05 07:15:00,
2013-01-05 02:20:00,32.6,23.5,29.69,NNE,23,6.0,6.0,69,0.00,,,0.00,WUHU216HW,2013-01-05 07:20:00,
2013-01-05 02:25:00,32.8,24.0,29.69,NW,315,0.4,6.0,70,0.00,,,0.00,WUHU216HW,2013-01-05 07:25:00,
2013-01-05 02:30:00,32.6,23.9,29.69,NNW,338,1.8,5.4,70,0.00,,,0.00,WUHU216HW,2013-01-05 07:30:00,
2013-01-05 02:35:00,32.4,23.8,29.69,NNE,23,1.3,2.0,70,0.00,,,0.00,WUHU216HW,2013-01-05 07:35:00,
2013-01-05 02:40:00,32.4,23.8,29.70,North,0,1.6,3.8,70,0.00,,,0.00,WUHU216HW,2013-01-05 07:40:00,
2013-01-05 02:45:00,32.4,23.8,29.70,ENE,68,0.4,4.3,70,0.00,,,0.00,WUHU216HW,2013-01-05 07:45:00,
2013-01-05 02:50:00,32.4,24.0,29.69,NNW,338,1.6,4.3,71,0.00,,,0.00,WUHU216HW,2013-01-05 07:50:00,
2013-01-05 02:55:00,32.4,23.8,29.70,NNE,23,1.6,3.6,70,0.00,,,0.00,WUHU216HW,2013-01-05 07:55:00,
2013-01-05 03:00:00,32.2,24.2,29.70,NNE,23,1.1,2.5,72,0.00,,,0.00,WUHU216HW,2013-01-05 08:00:00,
2013-01-05 03:05:00,32.0,24.0,29.70,North,0,0.7,2.7,72,0.00,,,0.00,WUHU216HW,2013-01-05 08:05:00,
2013-01-05 03:10:00,32.0,24.0,29.71,NE,45,0.4,2.7,72,0.00,,,0.00,WUHU216HW,2013-01-05 08:10:00,
2013-01-05 03:15:00,31.7,23.7,29.71,NE,45,0.7,1.6,72,0.00,,,0.00,WUHU216HW,2013-01-05 08:15:00,
2013-01-05 03:20:00,31.5,23.9,29.71,NNE,23,0.0,1.6,73,0.00,,,0.00,WUHU216HW,2013-01-05 08:20:00,
2013-01-05 03:25:00,31.3,23.9,29.72,NW,315,1.6,1.6,74,0.00,,,0.00,WUHU216HW,2013-01-05 08:25:00,
2013-01-05 03:30:00,31.5,23.9,29.72,North,0,3.8,3.8,73,0.00,,,0.00,WUHU216HW,2013-01-05 08:30:00,
2013-01-05 03:35:00,32.0,24.4,29.72,NW,315,0.9,3.8,73,0.00,,,0.00,WUHU216HW,2013-01-05 08:35:00,
2013-01-05 03:40:00,32.2,24.6,29.72,ENE,68,4.5,4.5,73,0.00,,,0.00,WUHU216HW,2013-01-05 08:40:00,
2013-01-05 03:45:00,32.4,24.4,29.72,NW,315,3.8,4.5,72,0.00,,,0.00,WUHU216HW,2013-01-05 08:45:00,
2013-01-05 03:50:00,32.6,24.6,29.72,WNW,293,1.6,4.7,72,0.00,,,0.00,WUHU216HW,2013-01-05 08:50:00,
2013-01-05 03:55:00,32.4,24.4,29.72,NW,315,0.4,4.7,72,0.00,,,0.00,WUHU216HW,2013-01-05 08:55:00,
2013-01-05 04:00:00,32.6,24.8,29.73,NE,45,2.5,2.7,73,0.00,,,0.00,WUHU216HW,2013-01-05 09:00:00,
2013-01-05 04:05:00,32.6,24.8,29.73,North,0,1.8,3.6,73,0.00,,,0.00,WUHU216HW,2013-01-05 09:05:00,
2013-01-05 04:10:00,32.6,24.8,29.73,NNW,338,2.2,4.0,73,0.00,,,0.00,WUHU216HW,2013-01-05 09:10:00,
2013-01-05 04:15:00,32.4,24.7,29.73,North,0,2.5,4.0,73,0.00,,,0.00,WUHU216HW,2013-01-05 09:15:00,
2013-01-05 04:20:00,32.6,24.8,29.73,NNW,338,2.9,6.3,73,0.00,,,0.00,WUHU216HW,2013-01-05 09:20:00,
2013-01-05 04:25:00,32.6,24.6,29.74,NNW,338,3.4,6.3,72,0.00,,,0.00,WUHU216HW,2013-01-05 09:25:00,
2013-01-05 04:30:00,32.8,24.0,29.74,NW,315,5.1,5.1,70,0.00,,,0.00,WUHU216HW,2013-01-05 09:30:00,
2013-01-05 04:35:00,33.1,24.4,29.74,NW,315,4.3,5.1,70,0.00,,,0.00,WUHU216HW,2013-01-05 09:35:00,
2013-01-05 04:40:00,32.9,24.2,29.75,NNW,338,4.5,5.1,70,0.00,,,0.00,WUHU216HW,2013-01-05 09:40:00,
2013-01-05 04:45:00,32.9,24.2,29.75,NNW,338,2.5,4.5,70,0.00,,,0.00,WUHU216HW,2013-01-05 09:45:00,
2013-01-05 04:50:00,33.1,24.4,29.75,North,0,2.5,6.3,70,0.00,,,0.00,WUHU216HW,2013-01-05 09:50:00,
2013-01-05 04:55:00,33.1,24.4,29.75,NW,315,0.9,6.3,70,0.00,,,0.00,WUHU216HW,2013-01-05 09:55:00,
2013-01-05 05:00:00,32.8,24.4,29.75,NE,45,3.6,4.0,71,0.00,,,0.00,WUHU216HW,2013-01-05 10:00:00,
2013-01-05 05:05:00,32.6,23.9,29.76,North,0,4.0,4.7,70,0.00,,,0.00,WUHU216HW,2013-01-05 10:05:00,
2013-01-05 05:10:00,32.9,23.9,29.76,North,0,2.9,4.7,69,0.00,,,0.00,WUHU216HW,2013-01-05 10:10:00,
2013-01-05 05:16:00,33.5,23.6,29.76,NW,315,3.8,11.9,67,0.00,,,0.00,WUHU216HW,2013-01-05 10:16:00,
2013-01-05 05:21:00,33.7,23.4,29.77,NNW,338,3.6,11.9,66,0.00,,,0.00,WUHU216HW,2013-01-05 10:21:00,
2013-01-05 05:26:00,33.8,22.9,29.77,North,0,5.1,6.3,64,0.00,,,0.00,WUHU216HW,2013-01-05 10:26:00,
2013-01-05 05:31:00,33.8,22.5,29.77,NNW,338,4.3,6.3,63,0.00,,,0.00,WUHU216HW,2013-01-05 10:31:00,
2013-01-05 05:36:00,33.8,22.9,29.78,NNW,338,5.4,5.4,64,0.00,,,0.00,WUHU216HW,2013-01-05 10:36:00,
2013-01-05 05:41:00,33.8,23.2,29.79,NNW,338,4.0,5.4,65,0.00,,,0.00,WUHU216HW,2013-01-05 10:41:00,
2013-01-05 05:46:00,33.5,22.9,29.79,NW,315,1.1,4.9,65,0.00,,,0.00,WUHU216HW,2013-01-05 10:46:00,
2013-01-05 05:51:00,33.5,22.5,29.79,ENE,68,2.9,5.6,64,0.00,,,0.00,WUHU216HW,2013-01-05 10:51:00,
2013-01-05 05:56:00,33.3,22.8,29.80,NNE,23,2.7,5.6,65,0.00,,,0.00,WUHU216HW,2013-01-05 10:56:00,
2013-01-05 06:01:00,33.3,22.8,29.81,NNW,338,4.7,4.7,65,0.00,,,0.00,WUHU216HW,2013-01-05 11:01:00,
2013-01-05 06:06:00,33.5,23.2,29.82,North,0,4.0,6.9,66,0.00,,,0.00,WUHU216HW,2013-01-05 11:06:00,
2013-01-05 06:11:00,32.6,25.5,29.82,NNW,338,5.1,6.9,75,0.00,,,0.00,WUHU216HW,2013-01-05 11:11:00,
2013-01-05 06:16:00,31.3,24.7,29.83,NNW,338,2.2,6.9,76,0.00,,,0.00,WUHU216HW,2013-01-05 11:16:00,
2013-01-05 06:21:00,31.1,24.5,29.83,NNW,338,2.7,6.3,76,0.00,,,0.00,WUHU216HW,2013-01-05 11:21:00,
2013-01-05 06:26:00,30.8,23.8,29.84,North,0,2.5,4.0,75,0.00,,,0.00,WUHU216HW,2013-01-05 11:26:00,
2013-01-05 06:31:00,30.4,22.2,29.84,East,90,2.2,3.6,71,0.00,,,0.00,WUHU216HW,2013-01-05 11:31:00,
2013-01-05 06:36:00,31.0,20.9,29.85,NNW,338,2.5,8.3,66,0.00,,,0.00,WUHU216HW,2013-01-05 11:36:00,
2013-01-05 06:41:00,31.3,20.5,29.85,North,0,1.8,8.3,64,0.00,,,0.00,WUHU216HW,2013-01-05 11:41:00,
2013-01-05 06:46:00,31.0,19.8,29.85,North,0,5.1,6.5,63,0.00,,,0.00,WUHU216HW,2013-01-05 11:46:00,
2013-01-05 06:51:00,31.0,19.8,29.86,NNW,338,3.4,6.9,63,0.00,,,0.00,WUHU216HW,2013-01-05 11:51:00,
2013-01-05 06:56:00,30.6,19.4,29.86,NNW,338,3.4,7.6,63,0.00,,,0.00,WUHU216HW,2013-01-05 11:56:00,
2013-01-05 07:01:00,30.4,18.9,29.87,NNE,23,2.2,7.6,62,0.00,,,0.00,WUHU216HW,2013-01-05 12:01:00,
2013-01-05 07:06:00,30.1,18.5,29.88,North,0,2.5,6.3,62,0.00,,,0.00,WUHU216HW,2013-01-05 12:06:00,
2013-01-05 07:11:00,30.1,18.5,29.88,NE,45,7.6,9.8,62,0.00,,,0.00,WUHU216HW,2013-01-05 12:11:00,
2013-01-05 07:16:00,30.2,18.4,29.89,NNW,338,1.8,9.8,61,0.00,,,0.00,WUHU216HW,2013-01-05 12:16:00,
2013-01-05 07:21:00,30.2,18.0,29.89,NNE,23,2.5,7.2,60,0.00,,,0.00,WUHU216HW,2013-01-05 12:21:00,
2013-01-05 07:26:00,30.1,18.2,29.90,NNW,338,5.4,7.2,61,0.00,,,0.00,WUHU216HW,2013-01-05 12:26:00,
2013-01-05 07:31:00,29.5,18.1,29.91,NW,315,2.5,5.4,62,0.00,,,0.00,WUHU216HW,2013-01-05 12:31:00,
2013-01-05 07:36:00,29.5,18.5,29.91,North,0,1.8,3.6,63,0.00,,,0.00,WUHU216HW,2013-01-05 12:36:00,
2013-01-05 07:41:00,29.5,18.5,29.92,NW,315,1.8,3.6,63,0.00,,,0.00,WUHU216HW,2013-01-05 12:41:00,
2013-01-05 07:46:00,29.5,18.1,29.92,NNW,338,3.4,4.7,62,0.00,,,0.00,WUHU216HW,2013-01-05 12:46:00,
2013-01-05 07:51:00,29.3,17.9,29.93,WNW,293,2.5,4.7,62,0.00,,,0.00,WUHU216HW,2013-01-05 12:51:00,
2013-01-05 07:56:00,29.2,17.7,29.94,North,0,8.5,8.5,62,0.00,,,0.00,WUHU216HW,2013-01-05 12:56:00,
2013-01-05 08:02:00,29.5,17.4,29.94,NNW,338,4.7,8.5,60,0.00,,,0.00,WUHU216HW,2013-01-05 13:02:00,
2013-01-05 08:07:00,29.3,16.7,29.94,North,0,6.5,6.5,59,0.00,,,0.00,WUHU216HW,2013-01-05 13:07:00,
2013-01-05 08:12:00,29.5,16.6,29.95,NNW,338,4.0,6.5,58,0.00,,,0.00,WUHU216HW,2013-01-05 13:12:00,
2013-01-05 08:17:00,29.7,15.8,29.95,North,0,4.7,8.5,56,0.00,,,0.00,WUHU216HW,2013-01-05 13:17:00,
2013-01-05 08:22:00,29.9,15.6,29.95,NNW,338,4.7,9.2,55,0.00,,,0.00,WUHU216HW,2013-01-05 13:22:00,
2013-01-05 08:27:00,29.9,15.6,29.95,NNW,338,4.9,9.2,55,0.00,,,0.00,WUHU216HW,2013-01-05 13:27:00,
2013-01-05 08:32:00,29.9,15.6,29.96,North,0,3.8,9.2,55,0.00,,,0.00,WUHU216HW,2013-01-05 13:32:00,
2013-01-05 08:37:00,30.1,15.4,29.96,NNE,23,6.3,10.5,54,0.00,,,0.00,WUHU216HW,2013-01-05 13:37:00,
2013-01-05 08:42:00,30.1,15.8,29.96,NNW,338,4.7,11.6,55,0.00,,,0.00,WUHU216HW,2013-01-05 13:42:00,
2013-01-05 08:47:00,30.1,15.4,29.96,North,0,4.3,11.6,54,0.00,,,0.00,WUHU216HW,2013-01-05 13:47:00,
2013-01-05 08:52:00,30.1,15.8,29.96,North,0,4.9,11.6,55,0.00,,,0.00,WUHU216HW,2013-01-05 13:52:00,
2013-01-05 08:57:00,30.1,15.8,29.97,North,0,4.3,11.6,55,0.00,,,0.00,WUHU216HW,2013-01-05 13:57:00,
2013-01-05 09:02:00,30.1,16.2,29.97,North,0,4.7,7.2,56,0.00,,,0.00,WUHU216HW,2013-01-05 14:02:00,
2013-01-05 09:07:00,30.2,15.9,29.98,NNW,338,8.3,8.7,55,0.00,,,0.00,WUHU216HW,2013-01-05 14:07:00,
2013-01-05 09:12:00,30.2,16.4,29.99,NNW,338,2.5,8.7,56,0.00,,,0.00,WUHU216HW,2013-01-05 14:12:00,
2013-01-05 09:17:00,30.2,16.4,29.99,North,0,8.5,8.5,56,0.00,,,0.00,WUHU216HW,2013-01-05 14:17:00,
2013-01-05 09:22:00,30.2,16.4,29.99,North,0,5.4,8.5,56,0.00,,,0.00,WUHU216HW,2013-01-05 14:22:00,
2013-01-05 09:27:00,29.9,16.5,30.00,North,0,4.9,11.4,57,0.00,,,0.00,WUHU216HW,2013-01-05 14:27:00,
2013-01-05 09:32:00,29.9,16.5,30.00,North,0,4.0,11.4,57,0.00,,,0.00,WUHU216HW,2013-01-05 14:32:00,
2013-01-05 09:37:00,30.1,16.2,30.01,North,0,7.4,7.4,56,0.00,,,0.00,WUHU216HW,2013-01-05 14:37:00,
2013-01-05 09:42:00,30.2,15.9,30.01,NNW,338,4.7,7.4,55,0.00,,,0.00,WUHU216HW,2013-01-05 14:42:00,
2013-01-05 09:47:00,30.1,15.8,30.01,North,0,10.5,10.5,55,0.00,,,0.00,WUHU216HW,2013-01-05 14:47:00,
2013-01-05 09:52:00,29.9,15.6,30.02,North,0,7.6,13.6,55,0.00,,,0.00,WUHU216HW,2013-01-05 14:52:00,
2013-01-05 09:57:00,29.9,15.6,30.02,NNW,338,6.7,13.6,55,0.00,,,0.00,WUHU216HW,2013-01-05 14:57:00,
2013-01-05 10:02:00,29.9,16.0,30.02,North,0,16.3,16.3,56,0.00,,,0.00,WUHU216HW,2013-01-05 15:02:00,
2013-01-05 10:07:00,29.9,16.0,30.02,North,0,11.4,16.3,56,0.00,,,0.00,WUHU216HW,2013-01-05 15:07:00,
2013-01-05 10:12:00,29.9,16.0,30.03,North,0,3.1,19.0,56,0.00,,,0.00,WUHU216HW,2013-01-05 15:12:00,
2013-01-05 10:17:00,29.9,16.0,30.03,North,0,6.3,19.0,56,0.00,,,0.00,WUHU216HW,2013-01-05 15:17:00,
2013-01-05 10:22:00,29.9,16.5,30.03,NNW,338,7.8,9.6,57,0.00,,,0.00,WUHU216HW,2013-01-05 15:22:00,
2013-01-05 10:27:00,29.9,16.5,30.03,NNW,338,3.4,7.8,57,0.00,,,0.00,WUHU216HW,2013-01-05 15:27:00,
2013-01-05 10:32:00,30.1,16.6,30.03,North,0,5.6,5.8,57,0.00,,,0.00,WUHU216HW,2013-01-05 15:32:00,
2013-01-05 10:38:00,30.2,16.4,30.03,North,0,6.9,8.7,56,0.00,,,0.00,WUHU216HW,2013-01-05 15:38:00,
2013-01-05 10:43:00,30.2,16.7,30.04,North,0,3.4,8.7,57,0.00,,,0.00,WUHU216HW,2013-01-05 15:43:00,
2013-01-05 10:48:00,30.1,16.2,30.04,NNW,338,5.6,10.1,56,0.00,,,0.00,WUHU216HW,2013-01-05 15:48:00,
2013-01-05 10:53:00,30.1,16.6,30.04,NNW,338,2.0,10.1,57,0.00,,,0.00,WUHU216HW,2013-01-05 15:53:00,
2013-01-05 10:58:00,30.1,16.2,30.04,NNW,338,3.4,9.2,56,0.00,,,0.00,WUHU216HW,2013-01-05 15:58:00,
2013-01-05 11:03:00,30.2,15.9,30.05,NNW,338,3.4,6.7,55,0.00,,,0.00,WUHU216HW,2013-01-05 16:03:00,
2013-01-05 11:08:00,30.1,15.8,30.05,NNW,338,6.3,6.9,55,0.00,,,0.00,WUHU216HW,2013-01-05 16:08:00,
2013-01-05 11:13:00,30.1,15.4,30.05,North,0,9.8,9.8,54,0.00,,,0.00,WUHU216HW,2013-01-05 16:13:00,
2013-01-05 11:18:00,29.9,15.2,30.04,North,0,6.0,9.8,54,0.00,,,0.00,WUHU216HW,2013-01-05 16:18:00,
2013-01-05 11:23:00,29.7,15.8,30.04,North,0,8.7,9.4,56,0.00,,,0.00,WUHU216HW,2013-01-05 16:23:00,
2013-01-05 11:28:00,29.9,15.2,30.04,NNW,338,10.5,10.5,54,0.00,,,0.00,WUHU216HW,2013-01-05 16:28:00,
2013-01-05 11:33:00,30.1,15.8,30.04,NNW,338,6.5,10.5,55,0.00,,,0.00,WUHU216HW,2013-01-05 16:33:00,
2013-01-05 11:38:00,29.9,15.6,30.04,North,0,10.7,10.7,55,0.00,,,0.00,WUHU216HW,2013-01-05 16:38:00,
2013-01-05 11:43:00,30.1,15.8,30.04,NNW,338,6.5,10.7,55,0.00,,,0.00,WUHU216HW,2013-01-05 16:43:00,
2013-01-05 11:48:00,29.9,15.6,30.04,North,0,4.7,10.5,55,0.00,,,0.00,WUHU216HW,2013-01-05 16:48:00,
2013-01-05 11:53:00,30.1,15.8,30.04,North,0,7.4,12.5,55,0.00,,,0.00,WUHU216HW,2013-01-05 16:53:00,
2013-01-05 11:58:00,30.1,15.8,30.05,NNW,338,8.5,12.5,55,0.00,,,0.00,WUHU216HW,2013-01-05 16:58:00,
2013-01-05 12:03:00,30.1,16.6,30.05,North,0,6.0,8.5,57,0.00,,,0.00,WUHU216HW,2013-01-05 17:03:00,
2013-01-05 12:08:00,30.2,16.7,30.05,NE,45,4.0,6.0,57,0.00,,,0.00,WUHU216HW,2013-01-05 17:08:00,
2013-01-05 12:13:00,30.4,16.6,30.05,North,0,4.5,8.3,56,0.00,,,0.00,WUHU216HW,2013-01-05 17:13:00,
2013-01-05 12:18:00,30.6,17.1,30.04,NNE,23,1.6,10.3,57,0.00,,,0.00,WUHU216HW,2013-01-05 17:18:00,
2013-01-05 12:23:00,30.8,16.8,30.04,NNE,23,4.7,10.3,56,0.00,,,0.00,WUHU216HW,2013-01-05 17:23:00,
2013-01-05 12:28:00,31.0,17.0,30.04,NNW,338,2.7,6.9,56,0.00,,,0.00,WUHU216HW,2013-01-05 17:28:00,
2013-01-05 12:33:00,31.1,17.2,30.04,NNW,338,2.2,6.9,56,0.00,,,0.00,WUHU216HW,2013-01-05 17:33:00,
2013-01-05 12:38:00,31.3,16.9,30.05,NNE,23,4.9,5.4,55,0.00,,,0.00,WUHU216HW,2013-01-05 17:38:00,
2013-01-05 12:43:00,31.3,16.9,30.05,North,0,4.7,5.4,55,0.00,,,0.00,WUHU216HW,2013-01-05 17:43:00,
2013-01-05 12:48:00,31.3,16.9,30.05,North,0,6.3,6.3,55,0.00,,,0.00,WUHU216HW,2013-01-05 17:48:00,
2013-01-05 12:53:00,31.7,17.3,30.05,North,0,3.8,6.3,55,0.00,,,0.00,WUHU216HW,2013-01-05 17:53:00,
2013-01-05 12:58:00,32.0,17.6,30.05,North,0,4.0,5.8,55,0.00,,,0.00,WUHU216HW,2013-01-05 17:58:00,
2013-01-05 13:03:00,32.0,16.7,30.05,North,0,7.6,7.6,53,0.00,,,0.00,WUHU216HW,2013-01-05 18:03:00,
2013-01-05 13:09:00,32.0,17.2,30.05,NNW,338,1.8,7.6,54,0.00,,,0.00,WUHU216HW,2013-01-05 18:09:00,
2013-01-05 13:14:00,32.0,17.6,30.05,NE,45,1.8,4.7,55,0.00,,,0.00,WUHU216HW,2013-01-05 18:14:00,
2013-01-05 13:19:00,32.0,16.7,30.06,North,0,4.0,4.3,53,0.00,,,0.00,WUHU216HW,2013-01-05 18:19:00,
2013-01-05 13:24:00,32.0,17.6,30.05,NNW,338,3.4,4.9,55,0.00,,,0.00,WUHU216HW,2013-01-05 18:24:00,
2013-01-05 13:29:00,31.9,17.0,30.05,North,0,4.7,10.5,54,0.00,,,0.00,WUHU216HW,2013-01-05 18:29:00,
2013-01-05 13:34:00,31.3,16.9,30.05,NNE,23,7.8,10.5,55,0.00,,,0.00,WUHU216HW,2013-01-05 18:34:00,
2013-01-05 13:39:00,31.1,16.8,30.05,North,0,4.0,7.8,55,0.00,,,0.00,WUHU216HW,2013-01-05 18:39:00,
2013-01-05 13:44:00,31.0,17.0,30.05,NNW,338,4.0,6.9,56,0.00,,,0.00,WUHU216HW,2013-01-05 18:44:00,
2013-01-05 13:49:00,30.6,17.1,30.05,NW,315,2.2,6.9,57,0.00,,,0.00,WUHU216HW,2013-01-05 18:49:00,
2013-01-05 13:54:00,30.8,17.3,30.05,ENE,68,2.9,5.6,57,0.00,,,0.00,WUHU216HW,2013-01-05 18:54:00,
2013-01-05 13:59:00,30.8,16.5,30.05,North,0,2.9,5.6,55,0.00,,,0.00,WUHU216HW,2013-01-05 18:59:00,
2013-01-05 14:04:00,30.6,17.1,30.05,NNW,338,1.1,3.6,57,0.00,,,0.00,WUHU216HW,2013-01-05 19:04:00,
2013-01-05 14:09:00,30.6,17.1,30.05,North,0,1.8,3.4,57,0.00,,,0.00,WUHU216HW,2013-01-05 19:09:00,
2013-01-05 14:14:00,30.4,16.9,30.05,North,0,3.4,3.4,57,0.00,,,0.00,WUHU216HW,2013-01-05 19:14:00,
2013-01-05 14:19:00,30.4,17.4,30.05,SW,225,1.8,3.4,58,0.00,,,0.00,WUHU216HW,2013-01-05 19:19:00,
2013-01-05 14:24:00,30.6,16.7,30.06,NNW,338,3.6,5.4,56,0.00,,,0.00,WUHU216HW,2013-01-05 19:24:00,
2013-01-05 14:29:00,30.2,17.2,30.05,NW,315,2.5,5.4,58,0.00,,,0.00,WUHU216HW,2013-01-05 19:29:00,
2013-01-05 14:34:00,30.2,17.2,30.06,WSW,248,1.3,2.5,58,0.00,,,0.00,WUHU216HW,2013-01-05 19:34:00,
2013-01-05 14:39:00,30.6,18.4,30.05,NNE,23,0.4,3.4,60,0.00,,,0.00,WUHU216HW,2013-01-05 19:39:00,
2013-01-05 14:44:00,30.6,17.6,30.06,North,0,2.5,3.4,58,0.00,,,0.00,WUHU216HW,2013-01-05 19:44:00,
2013-01-05 14:49:00,30.2,16.7,30.05,North,0,3.4,4.0,57,0.00,,,0.00,WUHU216HW,2013-01-05 19:49:00,
2013-01-05 14:54:00,29.9,16.5,30.05,North,0,9.2,9.2,57,0.00,,,0.00,WUHU216HW,2013-01-05 19:54:00,
2013-01-05 14:59:00,29.7,16.3,30.05,NNW,338,2.9,9.2,57,0.00,,,0.00,WUHU216HW,2013-01-05 19:59:00,
2013-01-05 15:04:00,29.5,16.6,30.05,NNW,338,1.8,8.3,58,0.00,,,0.00,WUHU216HW,2013-01-05 20:04:00,
2013-01-05 15:09:00,29.3,16.7,30.05,North,0,2.0,5.4,59,0.00,,,0.00,WUHU216HW,2013-01-05 20:09:00,
2013-01-05 15:14:00,29.5,16.6,30.05,NNW,338,1.1,4.7,58,0.00,,,0.00,WUHU216HW,2013-01-05 20:14:00,
2013-01-05 15:19:00,29.3,16.7,30.06,North,0,0.2,3.4,59,0.00,,,0.00,WUHU216HW,2013-01-05 20:19:00,
2013-01-05 15:24:00,29.2,16.7,30.06,North,0,0.0,2.2,59,0.00,,,0.00,WUHU216HW,2013-01-05 20:24:00,
2013-01-05 15:29:00,28.4,16.4,30.05,NNW,338,0.7,0.9,60,0.00,,,0.00,WUHU216HW,2013-01-05 20:29:00,
2013-01-05 15:34:00,28.1,16.4,30.05,NW,315,2.0,2.2,61,0.00,,,0.00,WUHU216HW,2013-01-05 20:34:00,
2013-01-05 15:39:00,28.4,16.7,30.05,NW,315,0.2,4.0,61,0.00,,,0.00,WUHU216HW,2013-01-05 20:39:00,
2013-01-05 15:44:00,28.4,17.1,30.06,WNW,293,2.5,4.0,62,0.00,,,0.00,WUHU216HW,2013-01-05 20:44:00,
2013-01-05 15:49:00,27.9,16.6,30.06,NW,315,2.0,2.7,62,0.00,,,0.00,WUHU216HW,2013-01-05 20:49:00,
2013-01-05 15:54:00,27.4,16.0,30.06,NW,315,0.0,2.0,62,0.00,,,0.00,WUHU216HW,2013-01-05 20:54:00,
2013-01-05 16:00:00,26.8,15.5,30.06,NW,315,1.8,1.8,62,0.00,,,0.00,WUHU216HW,2013-01-05 21:00:00,
2013-01-05 16:05:00,26.3,15.3,30.07,WSW,248,0.9,1.8,63,0.00,,,0.00,WUHU216HW,2013-01-05 21:05:00,
2013-01-05 16:10:00,26.3,15.3,30.06,West,270,1.1,1.8,63,0.00,,,0.00,WUHU216HW,2013-01-05 21:10:00,
2013-01-05 16:15:00,26.3,15.7,30.06,WNW,293,2.2,2.2,64,0.00,,,0.00,WUHU216HW,2013-01-05 21:15:00,
2013-01-05 16:20:00,26.3,16.0,30.06,NW,315,1.8,2.9,65,0.00,,,0.00,WUHU216HW,2013-01-05 21:20:00,
2013-01-05 16:25:00,26.3,16.0,30.06,NW,315,2.0,2.9,65,0.00,,,0.00,WUHU216HW,2013-01-05 21:25:00,
2013-01-05 16:30:00,26.1,15.8,30.07,NW,315,0.0,2.5,65,0.00,,,0.00,WUHU216HW,2013-01-05 21:30:00,
2013-01-05 16:35:00,25.6,15.0,30.07,NW,315,0.0,1.8,64,0.00,,,0.00,WUHU216HW,2013-01-05 21:35:00,
2013-01-05 16:40:00,24.8,14.3,30.06,NW,315,0.0,0.0,64,0.00,,,0.00,WUHU216HW,2013-01-05 21:40:00,
2013-01-05 16:45:00,24.1,14.0,30.06,NW,315,0.0,0.7,65,0.00,,,0.00,WUHU216HW,2013-01-05 21:45:00,
2013-01-05 16:50:00,23.4,13.3,30.06,NW,315,0.9,0.9,65,0.00,,,0.00,WUHU216HW,2013-01-05 21:50:00,
2013-01-05 16:55:00,23.0,13.7,30.07,WNW,293,0.0,2.0,67,0.00,,,0.00,WUHU216HW,2013-01-05 21:55:00,
2013-01-05 17:00:00,22.9,14.2,30.08,North,0,0.4,2.0,69,0.00,,,0.00,WUHU216HW,2013-01-05 22:00:00,
2013-01-05 17:05:00,22.9,14.9,30.08,NNW,338,1.6,1.8,71,0.00,,,0.00,WUHU216HW,2013-01-05 22:05:00,
2013-01-05 17:10:00,23.2,14.6,30.08,NNW,338,0.7,2.5,69,0.00,,,0.00,WUHU216HW,2013-01-05 22:10:00,
2013-01-05 17:15:00,23.2,14.6,30.08,NNW,338,1.1,2.5,69,0.00,,,0.00,WUHU216HW,2013-01-05 22:15:00,
2013-01-05 17:20:00,23.4,14.8,30.08,North,0,1.1,2.5,69,0.00,,,0.00,WUHU216HW,2013-01-05 22:20:00,
2013-01-05 17:25:00,23.6,14.6,30.08,NW,315,2.7,2.7,68,0.00,,,0.00,WUHU216HW,2013-01-05 22:25:00,
2013-01-05 17:30:00,23.4,14.4,30.08,NNW,338,1.3,2.7,68,0.00,,,0.00,WUHU216HW,2013-01-05 22:30:00,
2013-01-05 17:35:00,23.2,14.6,30.08,NW,315,1.8,3.4,69,0.00,,,0.00,WUHU216HW,2013-01-05 22:35:00,
2013-01-05 17:40:00,22.7,14.0,30.08,NNW,338,1.6,3.4,69,0.00,,,0.00,WUHU216HW,2013-01-05 22:40:00,
2013-01-05 17:45:00,22.0,13.3,30.08,NNW,338,1.1,1.8,69,0.00,,,0.00,WUHU216HW,2013-01-05 22:45:00,
2013-01-05 17:50:00,21.8,13.8,30.08,NNW,338,0.2,1.3,71,0.00,,,0.00,WUHU216HW,2013-01-05 22:50:00,
2013-01-05 17:55:00,21.6,13.6,30.08,NNW,338,0.9,1.6,71,0.00,,,0.00,WUHU216HW,2013-01-05 22:55:00,
2013-01-05 18:00:00,20.5,12.2,30.08,NNW,338,1.1,1.6,70,0.00,,,0.00,WUHU216HW,2013-01-05 23:00:00,
2013-01-05 18:05:00,20.0,11.7,30.09,NW,315,0.9,1.8,70,0.00,,,0.00,WUHU216HW,2013-01-05 23:05:00,
2013-01-05 18:11:00,19.8,12.4,30.08,NW,315,1.6,1.8,73,0.00,,,0.00,WUHU216HW,2013-01-05 23:11:00,
2013-01-05 18:16:00,19.4,12.7,30.08,North,0,0.2,1.8,75,0.00,,,0.00,WUHU216HW,2013-01-05 23:16:00,
2013-01-05 18:21:00,19.1,12.1,30.09,NNW,338,1.3,1.8,74,0.00,,,0.00,WUHU216HW,2013-01-05 23:21:00,
2013-01-05 18:26:00,18.5,11.9,30.10,NNW,338,0.7,2.0,75,0.00,,,0.00,WUHU216HW,2013-01-05 23:26:00,
2013-01-05 18:31:00,18.4,12.0,30.10,NNW,338,1.3,2.0,76,0.00,,,0.00,WUHU216HW,2013-01-05 23:31:00,
2013-01-05 18:36:00,18.2,11.8,30.09,North,0,0.7,2.0,76,0.00,,,0.00,WUHU216HW,2013-01-05 23:36:00,
2013-01-05 18:41:00,17.6,11.0,30.10,NNW,338,0.2,1.8,75,0.00,,,0.00,WUHU216HW,2013-01-05 23:41:00,
2013-01-05 18:46:00,17.1,10.2,30.10,NNW,338,0.0,0.9,74,0.00,,,0.00,WUHU216HW,2013-01-05 23:46:00,
2013-01-05 18:51:00,16.7,9.8,30.10,NNW,338,0.0,0.4,74,0.00,,,0.00,WUHU216HW,2013-01-05 23:51:00,
2013-01-05 18:56:00,16.4,9.5,30.09,NNW,338,0.0,0.4,74,0.00,,,0.00,WUHU216HW,2013-01-05 23:56:00,
2013-01-05 19:01:00,16.2,9.3,30.10,NNW,338,0.0,0.4,74,0.00,,,0.00,WUHU216HW,2013-01-06 00:01:00,
2013-01-05 19:06:00,16.2,9.6,30.09,North,0,0.7,0.7,75,0.00,,,0.00,WUHU216HW,2013-01-06 00:06:00,
2013-01-05 19:11:00,15.8,9.0,30.09,ESE,113,0.0,0.7,74,0.00,,,0.00,WUHU216HW,2013-01-06 00:11:00,
2013-01-05 19:16:00,15.3,9.1,30.09,NNW,338,0.0,1.1,76,0.00,,,0.00,WUHU216HW,2013-01-06 00:16:00,
2013-01-05 19:21:00,15.1,8.9,30.10,North,0,0.4,1.1,76,0.00,,,0.00,WUHU216HW,2013-01-06 00:21:00,
2013-01-05 19:26:00,14.8,8.8,30.10,North,0,0.4,0.9,77,0.00,,,0.00,WUHU216HW,2013-01-06 00:26:00,
2013-01-05 19:31:00,14.0,7.8,30.10,NNW,338,0.0,0.9,76,0.00,,,0.00,WUHU216HW,2013-01-06 00:31:00,
2013-01-05 19:36:00,14.0,8.1,30.10,North,0,0.2,1.1,77,0.00,,,0.00,WUHU216HW,2013-01-06 00:36:00,
2013-01-05 19:41:00,13.9,7.9,30.09,NNW,338,0.4,1.1,77,0.00,,,0.00,WUHU216HW,2013-01-06 00:41:00,
2013-01-05 19:46:00,13.9,7.9,30.09,NNW,338,0.0,1.1,77,0.00,,,0.00,WUHU216HW,2013-01-06 00:46:00,
2013-01-05 19:51:00,13.3,7.4,30.09,North,0,0.0,0.4,77,0.00,,,0.00,WUHU216HW,2013-01-06 00:51:00,
2013-01-05 19:56:00,13.3,7.4,30.09,North,0,0.4,0.7,77,0.00,,,0.00,WUHU216HW,2013-01-06 00:56:00,
2013-01-05 20:01:00,12.8,6.8,30.09,NNW,338,1.1,1.1,77,0.00,,,0.00,WUHU216HW,2013-01-06 01:01:00,
2013-01-05 20:06:00,12.6,6.7,30.09,NNW,338,0.4,1.1,77,0.00,,,0.00,WUHU216HW,2013-01-06 01:06:00,
2013-01-05 20:11:00,12.2,6.3,30.09,NNW,338,0.4,1.3,77,0.00,,,0.00,WUHU216HW,2013-01-06 01:11:00,
2013-01-05 20:16:00,13.0,7.0,30.09,North,0,0.0,1.3,77,0.00,,,0.00,WUHU216HW,2013-01-06 01:16:00,
2013-01-05 20:21:00,12.8,6.8,30.10,North,0,0.0,1.1,77,0.00,,,0.00,WUHU216HW,2013-01-06 01:21:00,
2013-01-05 20:26:00,12.1,6.1,30.10,North,0,0.0,0.2,77,0.00,,,0.00,WUHU216HW,2013-01-06 01:26:00,
2013-01-05 20:31:00,11.7,5.8,30.09,NNW,338,1.3,1.3,77,0.00,,,0.00,WUHU216HW,2013-01-06 01:31:00,
2013-01-05 20:36:00,10.8,4.9,30.10,NNW,338,0.7,1.3,77,0.00,,,0.00,WUHU216HW,2013-01-06 01:36:00,
2013-01-05 20:41:00,10.8,4.6,30.10,North,0,0.9,1.3,76,0.00,,,0.00,WUHU216HW,2013-01-06 01:41:00,
2013-01-05 20:46:00,10.6,4.7,30.10,North,0,0.4,1.1,77,0.00,,,0.00,WUHU216HW,2013-01-06 01:46:00,
2013-01-05 20:51:00,10.4,4.5,30.10,North,0,0.0,0.4,77,0.00,,,0.00,WUHU216HW,2013-01-06 01:51:00,
2013-01-05 20:56:00,10.4,4.5,30.10,North,0,0.2,1.3,77,0.00,,,0.00,WUHU216HW,2013-01-06 01:56:00,
2013-01-05 21:01:00,9.9,3.8,30.09,NNW,338,1.1,1.3,76,0.00,,,0.00,WUHU216HW,2013-01-06 02:01:00,
2013-01-05 21:06:00,9.7,3.9,30.09,NNW,338,0.7,1.8,77,0.00,,,0.00,WUHU216HW,2013-01-06 02:06:00,
2013-01-05 21:11:00,9.9,3.8,30.09,North,0,0.2,1.8,76,0.00,,,0.00,WUHU216HW,2013-01-06 02:11:00,
2013-01-05 21:16:00,9.7,3.9,30.09,North,0,0.0,0.7,77,0.00,,,0.00,WUHU216HW,2013-01-06 02:16:00,
2013-01-05 21:22:00,9.5,3.7,30.09,North,0,0.0,0.0,77,0.00,,,0.00,WUHU216HW,2013-01-06 02:22:00,
2013-01-05 21:27:00,9.4,3.9,30.10,SE,135,0.0,0.9,78,0.00,,,0.00,WUHU216HW,2013-01-06 02:27:00,
2013-01-05 21:32:00,9.2,3.7,30.09,SSE,158,0.0,0.9,78,0.00,,,0.00,WUHU216HW,2013-01-06 02:32:00,
2013-01-05 21:37:00,9.0,3.2,30.09,NNW,338,0.4,0.7,77,0.00,,,0.00,WUHU216HW,2013-01-06 02:37:00,
2013-01-05 21:42:00,8.3,2.5,30.09,NNW,338,1.3,1.3,77,0.00,,,0.00,WUHU216HW,2013-01-06 02:42:00,
2013-01-05 21:47:00,8.6,2.3,30.10,NNW,338,0.2,1.8,75,0.00,,,0.00,WUHU216HW,2013-01-06 02:47:00,
2013-01-05 21:52:00,9.2,2.8,30.10,NNW,338,0.9,1.8,75,0.00,,,0.00,WUHU216HW,2013-01-06 02:52:00,
2013-01-05 21:57:00,9.0,2.7,30.10,NNW,338,0.7,0.9,75,0.00,,,0.00,WUHU216HW,2013-01-06 02:57:00,
2013-01-05 22:02:00,9.0,3.0,30.09,NNW,338,0.2,0.7,76,0.00,,,0.00,WUHU216HW,2013-01-06 03:02:00,
2013-01-05 22:07:00,8.6,0.9,30.09,NNW,338,2.7,2.7,70,0.00,,,0.00,WUHU216HW,2013-01-06 03:07:00,
2013-01-05 22:12:00,9.0,1.3,30.09,NNW,338,0.4,2.7,70,0.00,,,0.00,WUHU216HW,2013-01-06 03:12:00,
2013-01-05 22:17:00,9.2,1.7,30.08,North,0,0.7,2.0,71,0.00,,,0.00,WUHU216HW,2013-01-06 03:17:00,
2013-01-05 22:22:00,9.4,1.5,30.07,NNW,338,0.9,1.6,70,0.00,,,0.00,WUHU216HW,2013-01-06 03:22:00,
2013-01-05 22:27:00,9.7,2.4,30.08,NNW,338,0.0,1.8,72,0.00,,,0.00,WUHU216HW,2013-01-06 03:27:00,
2013-01-05 22:32:00,9.9,2.9,30.08,NNW,338,0.0,1.8,73,0.00,,,0.00,WUHU216HW,2013-01-06 03:32:00,
2013-01-05 22:37:00,9.9,3.5,30.08,ESE,113,0.4,0.4,75,0.00,,,0.00,WUHU216HW,2013-01-06 03:37:00,
2013-01-05 22:42:00,9.9,3.8,30.08,SW,225,0.4,0.4,76,0.00,,,0.00,WUHU216HW,2013-01-06 03:42:00,
2013-01-05 22:47:00,9.7,3.9,30.08,WSW,248,0.7,0.7,77,0.00,,,0.00,WUHU216HW,2013-01-06 03:47:00,
2013-01-05 22:52:00,9.5,3.4,30.09,NNW,338,0.0,0.9,76,0.00,,,0.00,WUHU216HW,2013-01-06 03:52:00,
2013-01-05 22:57:00,9.4,3.6,30.09,NNW,338,0.2,0.9,77,0.00,,,0.00,WUHU216HW,2013-01-06 03:57:00,
2013-01-05 23:02:00,9.2,3.2,30.09,NNW,338,0.2,0.7,76,0.00,,,0.00,WUHU216HW,2013-01-06 04:02:00,
2013-01-05 23:07:00,9.5,3.2,30.09,North,0,0.0,0.7,75,0.00,,,0.00,WUHU216HW,2013-01-06 04:07:00,
2013-01-05 23:12:00,9.4,3.0,30.09,North,0,0.9,0.9,75,0.00,,,0.00,WUHU216HW,2013-01-06 04:12:00,
2013-01-05 23:17:00,9.4,3.0,30.09,NNW,338,0.4,1.1,75,0.00,,,0.00,WUHU216HW,2013-01-06 04:17:00,
2013-01-05 23:22:00,9.4,3.0,30.09,NNW,338,0.2,1.1,75,0.00,,,0.00,WUHU216HW,2013-01-06 04:22:00,
2013-01-05 23:27:00,9.5,3.2,30.09,NNW,338,0.4,0.7,75,0.00,,,0.00,WUHU216HW,2013-01-06 04:27:00,
2013-01-05 23:32:00,9.4,3.2,30.08,NNW,338,0.0,0.7,76,0.00,,,0.00,WUHU216HW,2013-01-06 04:32:00,
2013-01-05 23:37:00,9.4,3.2,30.08,NNW,338,0.2,0.2,76,0.00,,,0.00,WUHU216HW,2013-01-06 04:37:00,
2013-01-05 23:42:00,9.5,2.9,30.08,North,0,0.4,0.9,74,0.00,,,0.00,WUHU216HW,2013-01-06 04:42:00,
2013-01-05 23:47:00,9.5,2.9,30.08,NNW,338,0.9,1.6,74,0.00,,,0.00,WUHU216HW,2013-01-06 04:47:00,
2013-01-05 23:52:00,9.7,2.7,30.08,NNW,338,0.4,1.6,73,0.00,,,0.00,WUHU216HW,2013-01-06 04:52:00,
2013-01-05 23:57:00,10.1,3.3,30.07,NNW,338,1.1,1.3,74,0.00,,,0.00,WUHU216HW,2013-01-06 04:57:00,